DW6033 Weather Reports


Display with metric or nautical units.
time (UTC)temp
F
wind
direction
speed
MPH
gust
MPH
rain 1hr
in
rain 24hr
in
rain mn
in
humidity
%
barometer
mb
20260505001511 56 298 0.0 6.0 0.00 0.00 0.00 66 1007.0
20260505000020 56 304 4.0 5.0 0.00 0.00 0.00 64 1006.9
20260504234510 56 290 2.0 5.0 0.00 0.00 0.00 66 1006.7
20260504233011 54 325 2.0 4.0 0.00 0.00 0.00 72 1006.6
20260504231509 55 38 1.0 6.0 0.00 0.00 0.00 68 1006.4
20260504230009 56 34 3.0 6.0 0.00 0.00 0.00 68 1006.1
20260504224505 58 306 3.0 9.0 0.00 0.00 0.00 67 1005.9
20260504223007 55 134 5.0 10.0 0.00 0.00 0.00 71 1005.8
20260504221503 65 219 2.0 11.0 0.00 0.00 0.00 47 1005.7
20260504220003 65 288 9.0 15.0 0.00 0.00 0.00 46 1005.7
20260504214502 65 294 6.0 17.0 0.00 0.00 0.00 46 1005.7
20260504213002 65 238 11.0 21.0 0.00 0.00 0.00 46 1005.6
20260504211558 65 263 9.0 17.0 0.00 0.00 0.00 49 1005.6
20260504210059 64 292 8.0 21.0 0.00 0.00 0.00 52 1005.8
20260504204553 63 277 10.0 16.0 0.00 0.00 0.00 53 1005.7
20260504203053 63 263 9.0 16.0 0.00 0.00 0.00 55 1005.7
20260504201600 61 281 11.0 20.0 0.00 0.00 0.00 57 1005.7
20260504200047 61 262 9.0 15.0 0.00 0.00 0.00 57 1005.6
20260504194549 60 259 6.0 15.0 0.00 0.02 0.00 60 1005.7
20260504193043 60 243 6.0 10.0 0.00 0.02 0.00 61 1005.7
20260504191554 59 279 6.0 11.0 0.00 0.02 0.00 63 1006.1
20260504190046 59 285 7.0 12.0 0.00 0.02 0.00 63 1006.3
20260504184555 58 275 5.0 10.0 0.00 0.05 0.00 67 1006.3
20260504183042 57 262 5.0 9.0 0.00 0.05 0.00 71 1006.6
20260504181540 58 304 9.0 13.0 0.00 0.05 0.00 62 1006.8
20260504180042 59 219 4.0 13.0 0.00 0.05 0.00 54 1006.4
20260504174540 59 265 9.0 18.0 0.00 0.09 0.00 51 1006.4
20260504173037 60 209 9.0 23.0 0.00 0.09 0.00 51 1006.0
20260504171536 60 228 5.0 14.0 0.00 0.09 0.00 53 1005.7
20260504081512 35 317 2.0 3.0 0.00 0.53 0.00 89 1008.7
20260504044537 44 285 0.0 7.0 0.00 0.61 0.00 60 1007.7
20260504043035 44 344 1.0 8.0 0.00 0.61 0.00 60 1007.6
20260504041532 44 311 0.0 4.0 0.00 0.61 0.00 61 1007.5
20260504040031 44 321 2.0 7.0 0.00 0.61 0.00 58 1007.4
20260504034534 45 288 6.0 12.0 0.00 0.61 0.61 57 1007.2
20260504033044 45 313 3.0 8.0 0.00 0.61 0.61 59 1007.0
20260504031531 45 297 2.0 4.0 0.00 0.61 0.61 58 1006.9
20260504030027 46 266 1.0 6.0 0.00 0.61 0.61 55 1006.8
20260504024541 46 270 5.0 12.0 0.00 0.61 0.61 55 1006.6
20260504023026 46 278 4.0 9.0 0.00 0.61 0.61 53 1006.5
20260504021526 46 289 2.0 9.0 0.00 0.61 0.61 54 1006.4
20260504020028 46 315 3.0 9.0 0.00 0.61 0.61 53 1006.3
20260504014526 47 309 4.0 10.0 0.00 0.61 0.61 52 1006.3
20260504013025 47 293 3.0 12.0 0.00 0.61 0.61 53 1006.1
20260504011525 47 289 7.0 13.0 0.00 0.61 0.61 51 1005.8
20260504010028 48 306 7.0 16.0 0.00 0.61 0.61 50 1005.6
20260504004538 48 294 9.0 18.0 0.00 0.61 0.61 50 1005.2
20260504003022 49 292 7.0 14.0 0.00 0.61 0.61 52 1005.1